COSMOS 2251 DEB

Satellite information

Favourite Embed

Satellite Type and Status

DEBRISIN ORBIT

Key statistics

Satellite COSMOS 2251 DEB at a glance.

Uptime

11647

Days in orbit

Revolutions

≈ 14.1

Per day

Orbit

LEO

Low Earth Orbit

Inclination

74.1

Latest

Satellite identification and parameters

Extended collection of information and parameters for COSMOS 2251 DEB.

Object identification

Identified? True

Debris? True

Object name: COSMOS 2251 DEB

International designator: 1993-036BNN

Object number (NORAD): 37533

Object ID (CCSDS): 37533

Country: COMMONWEALTH OF INDEPENDENT STATES (CIS)

Current information (Y/N): Y

RCS size: SMALL

Orbital parameters

Period: 102.067 minutes

Inclination: 74.0685 deg

SMA: 7234.63 km

Apoapsis: 973.198 km

Periapsis: 739.792 km

RAAN: 223.0438 deg

Eccentricy: 0.0161312

Argument of periapsis: 333.5996 deg

Mean anomaly: 25.6987 deg

Mean motion: 14.10841709 rev/day

Mean motion (dot): 0.0000274 rev/day2

B* drag term: 0.001366 1/REarth

Two-line elements (TLE)

Creation date: May 4, 2025, 5:21 p.m.

Reference frame: TEME

Reference center: EARTH

Epoch: May 4, 2025, 12:42 p.m. UTC

TLE line 0: 0 COSMOS 2251 DEB

TLE line 1: 1 37533U 93036BNN 25124.52986107 .00002740 00000-0 13660-2 0 9995

TLE line 2: 2 37533 74.0685 223.0438 0161312 333.5996 25.6987 14.10841709597864

Live tracking on map

Real-time ground track for satellite COSMOS 2251 DEB.

In-orbit conjunctions

A list of the most updated potential collisions computed for object COSMOS 2251 DEB.

Target Orbit TCA Probability of collision Miss distance Type
FEDSAT SSO 2025-04-15 20:55:09 0.0005594599 159.0 (m) PAYLOAD
CZ-6A DEB LEO 2024-11-14 21:23:42 0.0001956681 668.0 (m) DEBRIS

Associated space launch

Military communications satellite. Destroyed in a collision with Iridium 33.

COSMOS 2251 DEB was lifted into orbit during the mission ‘Kosmos-3M | Strela-2M 51’, on board a Kosmos-3M space rocket.

The launch took place on June 16, 1993, 4:17 a.m. from 132/1 (132L).

For more information about the launch, click the button.

Launch to space Kosmos-3M | Strela-2M 51
Kosmos-3M | Strela-2M 51

Agency: N/A

Status: Launch Successful

Launch date: June 16, 1993, 4:17 a.m. UTC

Rocket: Kosmos-3M

Launch pad: 132/1 (132L)

Location: Plesetsk Cosmodrome, Russian Federation

...

Latest news about this satellite

There are no fresh news available about this satellite. Check back as we update our databases every day.


Newsletter sign-up

Weekly statistics, charts and insights to help you stay on top of the space industry.